Location: Marsån
(66.4167°N, 22.2833°E)
Time: 10:30:47
(UTC+00:00)

Cosmos 2263 Rocket - Pass Details

Date: 24 February 2024
Orbit: 823 x 848 km, 71.0° (Epoch: 15 April)

Event Time Altitude Azimuth Distance (km) Brightness Sun altitude
Exits shadow 22:27:50 18° 70° (ENE) 2,001 4.2 -32.9°
Drops below altitude 10° 22:29:38 10° 56° (NE) 2,487 4.9 -32.9°
Sets 22:32:29 0° 44° (NE) 3,427 5.9 -32.9°
